Regional Weather Roundup
Issued by NWS Albany, NY

Home | Current Version | Previous Version | Text Only | Print | Product List | Glossary On
Versions: 1 2 3 4 5 6 7 8 9 10 11 12 13 14 15 16 17 18 19 20 21 22 23 24 25 26 27 28 29 30 31 32 33 34 35 36 37 38 39 40 41 42 43 44 45 46 47 48 49 50
000
ASUS41 KALY 300510
RWRALY

NEW YORK STATE HOURLY WEATHER ROUNDUP
NATIONAL WEATHER SERVICE ALBANY NY
100 AM EDT THU JUL 30 2015

NOTE: "FAIR" INDICATES FEW OR NO CLOUDS BELOW 12,000 FEET WITH NO
SIGNIFICANT WEATHER AND/OR NO OBSTRUCTIONS TO VISIBILITY.

NYZ032-033-038>043-046>054-057>066-NYZ062>081-300600-
EAST


CITY           SKY/WX    TMP DP  RH WIND       PRES   REMARKS
ALBANY         PTCLDY    76  66  71 CALM      29.89S
GLENS FALLS    CLEAR     69  66  90 CALM      29.88S
POUGHKEEPSIE   CLEAR     72  68  87 CALM      29.91S
MONTGOMERY     CLEAR     73  67  81 S6        29.93S
WHITE PLAINS   CLEAR     79  71  76 CALM      29.94S
ISLIP          CLEAR     78  73  84 SW8       29.92S
NEW YORK CITY  PTCLDY    83  71  67 SW7       29.92S
CENTRAL PARK   CLEAR     82  71  69 W10       29.96S
$$

NYZ005>009-017-018-044>046-055-056-300600-
CENTRAL


CITY           SKY/WX    TMP DP  RH WIND       PRES   REMARKS
FULTON         MOCLDY    74  65  73 S5        29.85F
SYRACUSE       PTCLDY    74  65  73 E6        29.86S
ROME           CLEAR     73  66  78 E5        29.89S
ELMIRA         MOCLDY    69  67  93 CALM      29.91S
BINGHAMTON     PTCLDY    74  65  73 S6        29.96S
MONTICELLO     CLEAR     66  66 100 CALM      30.00S
$$

NYZ026>034-041>043-300600-
NORTH


CITY           SKY/WX    TMP DP  RH WIND       PRES   REMARKS
WATERTOWN      CLEAR     75  64  68 S5        29.82F
FORT DRUM      NOT AVBL
MASSENA        CLEAR     67  63  87 CALM      29.83F
SARANAC LAKE   CLEAR     60  58  92 CALM      29.92F FOG
PLATTSBURGH    CLEAR     69  68  96 CALM      29.85S
$$

NYZ001>004-010>016-019>021-300600-
WEST


CITY           SKY/WX    TMP DP  RH WIND       PRES   REMARKS
NIAGARA FALLS  MOCLDY    77  71  82 S8        29.83F
BUFFALO        MOCLDY    77  65  66 S7        29.85F
DUNKIRK        CLOUDY    77  68  73 SW7       29.87S
JAMESTOWN      CLOUDY    72  66  83 S3        29.94F
WELLSVILLE     MOCLDY    75  67  76 SW6       29.98F
ROCHESTER      MOCLDY    75  67  76 SW6       29.85F
PENN YAN       PTCLDY    75  68  78 SW7       29.90F
$$

             KEY
       WCI = WIND CHILL INDEX
       VSB = VISIBILITY
       HX  = HEAT INDEX
$$



USA.gov is the U.S. government's official web portal to all federal, state and local government web resources and services.